| time (UTC) | temp F | wind direction | speed MPH | gust MPH | rain 1hr in | rain 24hr in | rain mn in | humidity % | barometer mb |
| 20260509050712 | 50 | 263 | 0.0 | 0.0 | 0.00 | 0.00 | 0.00 | 85 | 1012.9 |
| 20260509050212 | 50 | 263 | 0.0 | 1.0 | 0.00 | 0.00 | 0.00 | 85 | 1012.8 |
| 20260509043712 | 50 | 259 | 0.0 | 0.0 | 0.00 | 0.00 | 0.00 | 85 | 1012.7 |
| 20260509043212 | 50 | 259 | 0.0 | 0.0 | 0.00 | 0.00 | 0.00 | 85 | 1012.6 |
| 20260509040711 | 50 | 259 | 0.0 | 0.0 | 0.00 | 0.00 | 0.00 | 85 | 1012.7 |
| 20260509040212 | 50 | 259 | 0.0 | 0.0 | 0.00 | 0.00 | 0.00 | 85 | 1012.6 |
| 20260509033212 | 51 | 259 | 0.0 | 0.0 | 0.00 | 0.00 | 0.00 | 85 | 1012.8 |
| 20260509030712 | 51 | 259 | 0.0 | 0.0 | 0.00 | 0.00 | 0.00 | 85 | 1012.8 |
| 20260509030212 | 51 | 259 | 0.0 | 0.0 | 0.00 | 0.00 | 0.00 | 84 | 1012.8 |
| 20260509020712 | 51 | 259 | 0.0 | 0.0 | 0.00 | 0.00 | 0.00 | 85 | 1013.2 |
| 20260509013712 | 50 | 259 | 0.0 | 0.0 | 0.00 | 0.00 | 0.00 | 85 | 1013.6 |
| 20260509010712 | 49 | 259 | 0.0 | 0.0 | 0.00 | 0.00 | 0.00 | 85 | 1013.9 |
| 20260509003212 | 48 | 262 | 0.0 | 0.0 | 0.00 | 0.00 | 0.00 | 85 | 1014.2 |
| 20260508230711 | 47 | 194 | 0.0 | 0.0 | 0.00 | 0.00 | 0.00 | 84 | 1014.2 |
| 20260508223212 | 48 | 194 | 0.0 | 0.0 | 0.00 | 0.00 | 0.00 | 84 | 1014.3 |
| 20260508213712 | 49 | 194 | 0.0 | 0.0 | 0.00 | 0.00 | 0.00 | 84 | 1014.2 |
| 20260508213212 | 49 | 194 | 0.0 | 0.0 | 0.00 | 0.00 | 0.00 | 84 | 1014.2 |
| 20260508210711 | 51 | 194 | 0.0 | 0.0 | 0.00 | 0.00 | 0.00 | 84 | 1014.1 |
| 20260508210212 | 51 | 194 | 0.0 | 0.0 | 0.00 | 0.00 | 0.00 | 84 | 1014.2 |
| 20260508203712 | 52 | 194 | 0.0 | 0.0 | 0.00 | 0.00 | 0.00 | 83 | 1014.3 |
| 20260508200711 | 54 | 194 | 0.0 | 0.0 | 0.00 | 0.00 | 0.00 | 83 | 1013.6 |
| 20260508200211 | 54 | 194 | 0.0 | 0.0 | 0.00 | 0.00 | 0.00 | 82 | 1013.6 |
| 20260508193711 | 56 | 160 | 0.0 | 0.0 | 0.00 | 0.00 | 0.00 | 82 | 1013.3 |
| 20260508190211 | 59 | 159 | 0.0 | 0.0 | 0.00 | 0.00 | 0.00 | 82 | 1012.6 |
| 20260508183711 | 60 | 148 | 0.0 | 0.0 | 0.00 | 0.00 | 0.00 | 80 | 1012.5 |
| 20260508183211 | 60 | 148 | 0.0 | 0.0 | 0.00 | 0.00 | 0.00 | 80 | 1012.5 |
| 20260508180711 | 62 | 199 | 0.0 | 0.0 | 0.00 | 0.00 | 0.00 | 78 | 1012.2 |
| 20260508180211 | 62 | 194 | 0.0 | 6.0 | 0.00 | 0.00 | 0.00 | 78 | 1012.1 |
| 20260508173710 | 63 | 125 | 0.0 | 5.0 | 0.00 | 0.00 | 0.00 | 74 | 1012.3 |
| 20260508173211 | 63 | 159 | 0.0 | 5.0 | 0.00 | 0.00 | 0.00 | 73 | 1012.2 |
| 20260508170711 | 63 | 141 | 1.0 | 5.0 | 0.00 | 0.00 | 0.00 | 70 | 1012.0 |
| 20260508163210 | 64 | 115 | 2.0 | 12.0 | 0.00 | 0.00 | 0.00 | 68 | 1012.1 |
| 20260508160710 | 65 | 101 | 2.0 | 7.0 | 0.00 | 0.00 | 0.00 | 65 | 1011.9 |
| 20260508160210 | 65 | 109 | 3.0 | 9.0 | 0.00 | 0.00 | 0.00 | 63 | 1012.0 |
| 20260508153211 | 67 | 140 | 0.0 | 3.0 | 0.00 | 0.00 | 0.00 | 57 | 1012.0 |
| 20260508143710 | 67 | 270 | 0.0 | 1.0 | 0.00 | 0.00 | 0.00 | 62 | 1011.9 |
| 20260508140710 | 65 | 110 | 0.0 | 0.0 | 0.00 | 0.00 | 0.00 | 66 | 1012.6 |
| 20260508140210 | 64 | 188 | 0.0 | 7.0 | 0.00 | 0.00 | 0.00 | 67 | 1012.7 |
| 20260508133711 | 63 | 162 | 1.0 | 6.0 | 0.00 | 0.00 | 0.00 | 68 | 1013.0 |
| 20260508133211 | 63 | 119 | 1.0 | 9.0 | 0.00 | 0.00 | 0.00 | 67 | 1013.0 |
| 20260508130711 | 64 | 104 | 4.0 | 9.0 | 0.00 | 0.00 | 0.00 | 63 | 1012.8 |
| 20260508120210 | 65 | 114 | 0.0 | 3.0 | 0.00 | 0.00 | 0.00 | 55 | 1012.5 |
| 20260508113710 | 65 | 65 | 0.0 | 0.0 | 0.00 | 0.00 | 0.00 | 56 | 1012.4 |
| 20260508110710 | 64 | 68 | 3.0 | 9.0 | 0.00 | 0.00 | 0.00 | 57 | 1012.6 |
| 20260508083209 | 59 | 154 | 0.0 | 0.0 | 0.00 | 0.00 | 0.00 | 73 | 1012.7 |
| 20260508080710 | 58 | 80 | 0.0 | 0.0 | 0.00 | 0.00 | 0.00 | 75 | 1012.6 |
| 20260508080210 | 57 | 105 | 0.0 | 0.0 | 0.00 | 0.00 | 0.00 | 75 | 1012.6 |
| 20260508070709 | 54 | 98 | 0.0 | 0.0 | 0.00 | 0.00 | 0.00 | 80 | 1012.3 |
| 20260508063709 | 52 | 277 | 0.0 | 0.0 | 0.00 | 0.00 | 0.00 | 84 | 1012.4 |
| 20260508063210 | 51 | 277 | 0.0 | 0.0 | 0.00 | 0.00 | 0.00 | 84 | 1012.4 |
| 20260508060709 | 49 | 257 | 0.0 | 0.0 | 0.00 | 0.00 | 0.00 | 85 | 1012.4 |
| 20260508060209 | 48 | 261 | 0.0 | 0.0 | 0.00 | 0.00 | 0.00 | 85 | 1012.4 |